Zurück zum Katalog

STARLINK-11421

AktivKommunikationVLEO
NORAD 61945·PAYLOAD·🇺🇸 United States

Gestartet Nov 14, 2024 von Vandenberg Space Force Base

Loading…

Nächste Überflüge (nächste 24 Stunden)

TLE

AktuellSource: CelesTrak SupGP

Epoche: Sep 14, 2026, 22:41 UTC

1 61945C 24209G   26257.94562500 -.00056477  00000+0 -46505-3 0  2575
2 61945  53.1569 158.4690 0001026  91.8651 151.1100 15.69746926    13

Verfolge STARLINK-11421 in Echtzeit mit AllMySat

Download on the App Store